Regional Weather Roundup
Issued by NWS

Home | Current Version | Previous Version | Text Only | Print | Product List | Glossary Off
Versions: 1 2 3 4 5 6 7 8 9 10 11 12 13 14 15 16 17 18 19 20 21 22 23 24 25 26 27 28 29 30 31 32 33 34 35 36 37 38 39 40 41 42 43 44 45 46 47 48 49 50

000
ASUS43 KBIS 220810
RWRND

NORTH DAKOTA REGIONAL WEATHER ROUNDUP
NATIONAL WEATHER SERVICE BISMARCK ND
300 AM CDT TUE JUL 22 2014

NOTE: "FAIR" INDICATES FEW OR NO CLOUDS BELOW 12,000 FEET WITH NO
SIGNIFICANT WEATHER AND/OR OBSTRUCTIONS TO VISIBILITY.


NDZ001>003-009>011-017-220900-
NORTHWEST NORTH DAKOTA

CITY           SKY/WX    TMP DP  RH WIND       PRES   REMARKS
WILLISTON      CLOUDY    60  57  89 CALM      30.06R
MINOT          PTCLDY    61  59  93 W7        30.03R
MINOT AFB      PTCLDY    59  59 100 W7        30.03R
$$

NDZ018>021-031>035-040>046-220900-
SOUTHWEST NORTH DAKOTA

CITY           SKY/WX    TMP DP  RH WIND       PRES   REMARKS
BISMARCK       CLEAR     62  61  96 W7        30.05R
DICKINSON      PTCLDY    59  57  93 CALM      30.09R
GARRISON         N/A     59  59 100 NW7       30.05R
HETTINGER ARPT FOG       59  57  93 NW5       30.09F VSB 1
$$

NDZ004>008-012>016-024-026-027-054-220900-
NORTHEAST NORTH DAKOTA

CITY           SKY/WX    TMP DP  RH WIND       PRES   REMARKS
GRAND FORKS    CLOUDY    65  62  90 NW13G21   29.87R
GRND FRKS AFB  CLOUDY    64  64 100 NW13      29.90R
DEVILS LAKE    CLOUDY    63  57  82 NW8       29.96R
$$

NDZ022-023-025-028>030-036>039-047>053-220900-
SOUTHEAST NORTH DAKOTA

CITY           SKY/WX    TMP DP  RH WIND       PRES   REMARKS
FARGO          CLOUDY    68  65  90 W12       29.87R
JAMESTOWN      CLOUDY    66  64  93 N12       29.95R
$$




USA.gov is the U.S. government's official web portal to all federal, state and local government web resources and services.